Location: Bonny Doon Airfield
(37.0704°N, 122.1252°W)
Time: 02:47:06
(UTC-07:00)

N. Korean satellite - Pass Details

Date: 11 October 2017
Orbit: 459 x 517 km, 97.2° (Epoch: 22 October)

Event Time Altitude Azimuth Distance (km) Brightness Sun altitude
Rises 19:06:43 0° 163° (SSE) 2,566 10.1 -6.8°
Reaches altitude 10° 19:08:48 10° 161° (SSE) 1,678 9.1 -7.2°
Maximum altitude 19:12:23 72° 78° (ENE) 513 6.5 -7.9°
Drops below altitude 10° 19:15:57 10° 353° (N) 1,658 9.3 -8.6°
Sets 19:18:00 0° 351° (N) 2,531 10.3 -9.0°
